SQ5MBG-1 Weather Reports


time (UTC)temp
C
wind
direction
speed
KPH
gust
KPH
rain 1hr
cm
rain 24hr
cm
rain mn
cm
humidity
%
barometer
mb
20260507075916 20 0 0.0 0.0 0.00 0.00 0.00 60 995.8
20260507075416 21 0 0.0 0.0 0.00 0.00 0.00 60 995.8
20260507074916 21 0 0.0 0.0 0.00 0.00 0.00 61 995.8
20260507074416 21 0 0.0 0.0 0.00 0.00 0.00 61 995.8
20260507073917 21 0 0.0 0.0 0.00 0.00 0.00 62 995.6
20260507073416 21 0 0.0 0.0 0.00 0.00 0.00 62 995.5
20260507072916 20 0 0.0 0.0 0.00 0.00 0.00 63 995.5
20260507072416 20 0 0.0 0.0 0.00 0.00 0.00 64 995.3
20260507071916 20 0 0.0 0.0 0.00 0.00 0.00 64 995.3
20260507071416 20 0 0.0 0.0 0.00 0.00 0.00 65 995.2
20260507070916 20 0 0.0 0.0 0.00 0.00 0.00 65 995.2
20260507070416 19 0 0.0 0.0 0.00 0.00 0.00 65 995.2
20260507065916 19 0 0.0 0.0 0.00 0.00 0.00 66 995.1
20260507065416 18 0 0.0 0.0 0.00 0.00 0.00 67 995.2
20260507064916 18 0 0.0 0.0 0.00 0.00 0.00 66 995.2
20260507064416 18 0 0.0 0.0 0.00 0.00 0.00 67 995.1
20260507063916 18 0 0.0 0.0 0.00 0.00 0.00 67 995.0
20260507063416 18 0 0.0 0.0 0.00 0.00 0.00 67 994.9
20260507062916 18 0 0.0 0.0 0.00 0.00 0.00 67 995.0
20260507062416 18 0 0.0 0.0 0.00 0.00 0.00 67 994.9
20260507061916 18 0 0.0 0.0 0.00 0.00 0.00 67 995.0
20260507061416 18 0 0.0 0.0 0.00 0.00 0.00 67 995.0
20260507060916 17 0 0.0 0.0 0.00 0.00 0.00 68 994.9
20260507060416 17 0 0.0 0.0 0.00 0.00 0.00 67 994.9
20260507055916 17 0 0.0 0.0 0.00 0.00 0.00 66 994.9
20260507055416 17 0 0.0 0.0 0.00 0.00 0.00 66 994.8
20260507054916 18 0 0.0 0.0 0.00 0.00 0.00 66 994.8
20260507054416 18 0 0.0 0.0 0.00 0.00 0.00 65 994.6
20260507053916 18 0 0.0 0.0 0.00 0.00 0.00 65 994.8
20260507053416 18 0 0.0 0.0 0.00 0.00 0.00 63 994.7
20260507052916 18 0 0.0 0.0 0.00 0.00 0.00 63 994.9
20260507052416 19 0 0.0 0.0 0.00 0.00 0.00 63 994.8
20260507051916 19 0 0.0 0.0 0.00 0.00 0.00 62 994.7
20260507051416 20 0 0.0 0.0 0.00 0.00 0.00 61 994.6
20260507050916 21 0 0.0 0.0 0.00 0.00 0.00 59 994.4
20260507050416 21 0 0.0 0.0 0.00 0.00 0.00 59 994.4
20260507045916 22 0 0.0 0.0 0.00 0.00 0.00 59 994.4
20260507045416 22 0 0.0 0.0 0.00 0.00 0.00 59 994.2
20260507044916 22 0 0.0 0.0 0.00 0.00 0.00 62 994.3
20260507044416 21 0 0.0 0.0 0.00 0.00 0.00 63 994.3
20260507043916 21 0 0.0 0.0 0.00 0.00 0.00 65 994.1
20260507043416 20 0 0.0 0.0 0.00 0.00 0.00 65 993.9
20260507042916 20 0 0.0 0.0 0.00 0.00 0.00 66 994.0
20260507042416 20 0 0.0 0.0 0.00 0.00 0.00 66 994.2
20260507041916 19 0 0.0 0.0 0.00 0.00 0.00 67 994.0
20260507041416 19 0 0.0 0.0 0.00 0.00 0.00 67 994.1
20260507040916 18 0 0.0 0.0 0.00 0.00 0.00 68 993.9
20260507040416 18 0 0.0 0.0 0.00 0.00 0.00 69 993.9
20260507035916 18 0 0.0 0.0 0.00 0.00 0.00 68 993.9
20260507035416 18 0 0.0 0.0 0.00 0.00 0.00 68 993.8
20260507034916 17 0 0.0 0.0 0.00 0.00 0.00 68 993.9
20260507034416 18 0 0.0 0.0 0.00 0.00 0.00 68 993.9
20260507033916 18 0 0.0 0.0 0.00 0.00 0.00 67 993.8
20260507033416 18 0 0.0 0.0 0.00 0.00 0.00 67 993.7
20260507032916 18 0 0.0 0.0 0.00 0.00 0.00 67 993.6
20260507032416 18 0 0.0 0.0 0.00 0.00 0.00 67 993.4
20260507031916 18 0 0.0 0.0 0.00 0.00 0.00 67 993.6
20260507031417 18 0 0.0 0.0 0.00 0.00 0.00 67 993.4
20260507030916 18 0 0.0 0.0 0.00 0.00 0.00 67 993.4
20260507030416 18 0 0.0 0.0 0.00 0.00 0.00 67 993.4
20260507025917 18 0 0.0 0.0 0.00 0.00 0.00 67 993.3
20260507025417 18 0 0.0 0.0 0.00 0.00 0.00 67 993.2
20260507024917 18 0 0.0 0.0 0.00 0.00 0.00 66 993.2
20260507024417 18 0 0.0 0.0 0.00 0.00 0.00 67 993.3
20260507023917 18 0 0.0 0.0 0.00 0.00 0.00 66 993.2
20260507023417 18 0 0.0 0.0 0.00 0.00 0.00 67 993.1
20260507022917 18 0 0.0 0.0 0.00 0.00 0.00 66 993.2
20260507022417 18 0 0.0 0.0 0.00 0.00 0.00 66 993.1
20260507021917 18 0 0.0 0.0 0.00 0.00 0.00 66 993.1
20260507021417 18 0 0.0 0.0 0.00 0.00 0.00 66 993.3
20260507020917 18 0 0.0 0.0 0.00 0.00 0.00 66 993.2
20260507020417 18 0 0.0 0.0 0.00 0.00 0.00 66 993.1
20260507015917 18 0 0.0 0.0 0.00 0.00 0.00 65 993.1
20260507015417 18 0 0.0 0.0 0.00 0.00 0.00 65 993.2
20260507014917 18 0 0.0 0.0 0.00 0.00 0.00 65 993.2
20260507014417 18 0 0.0 0.0 0.00 0.00 0.00 64 993.6
20260507013917 18 0 0.0 0.0 0.00 0.00 0.00 64 993.5
20260507013417 18 0 0.0 0.0 0.00 0.00 0.00 64 993.3
20260507012917 18 0 0.0 0.0 0.00 0.00 0.00 64 993.2
20260507012417 18 0 0.0 0.0 0.00 0.00 0.00 64 993.3
20260507011917 18 0 0.0 0.0 0.00 0.00 0.00 63 993.2
20260507011417 18 0 0.0 0.0 0.00 0.00 0.00 63 993.1
20260507010917 18 0 0.0 0.0 0.00 0.00 0.00 62 992.8
20260507010508 18 0 0.0 0.0 0.00 0.00 0.00 62 992.9
20260507005917 18 0 0.0 0.0 0.00 0.00 0.00 62 993.0
20260507005417 18 0 0.0 0.0 0.00 0.00 0.00 61 993.3
20260507004917 18 0 0.0 0.0 0.00 0.00 0.00 60 993.3
20260507004417 18 0 0.0 0.0 0.00 0.00 0.00 59 993.4
20260507003917 19 0 0.0 0.0 0.00 0.00 0.00 58 993.3
20260507003417 19 0 0.0 0.0 0.00 0.00 0.00 58 993.3
20260507002917 19 0 0.0 0.0 0.00 0.00 0.00 57 993.3
20260507002417 19 0 0.0 0.0 0.00 0.00 0.00 57 993.2
20260507001917 19 0 0.0 0.0 0.00 0.00 0.00 57 993.2
20260507001417 19 0 0.0 0.0 0.00 0.00 0.00 57 993.2
20260507000917 19 0 0.0 0.0 0.00 0.00 0.00 57 993.0
20260507000417 19 0 0.0 0.0 0.00 0.00 0.00 56 992.8
20260506235917 19 0 0.0 0.0 0.00 0.00 0.00 57 992.8
20260506235417 19 0 0.0 0.0 0.00 0.00 0.00 57 992.6
20260506234917 19 0 0.0 0.0 0.00 0.00 0.00 57 992.5
20260506234417 19 0 0.0 0.0 0.00 0.00 0.00 57 992.7
20260506233917 19 0 0.0 0.0 0.00 0.00 0.00 57 992.5
20260506233417 19 0 0.0 0.0 0.00 0.00 0.00 57 992.5
20260506232917 19 0 0.0 0.0 0.00 0.00 0.00 57 992.6
20260506232417 19 0 0.0 0.0 0.00 0.00 0.00 56 992.4
20260506231917 19 0 0.0 0.0 0.00 0.00 0.00 56 992.5
20260506231417 19 0 0.0 0.0 0.00 0.00 0.00 56 992.5
20260506230917 19 0 0.0 0.0 0.00 0.00 0.00 56 992.7
20260506230417 20 0 0.0 0.0 0.00 0.00 0.00 56 992.6
20260506225917 20 0 0.0 0.0 0.00 0.00 0.00 56 992.6
20260506225417 19 0 0.0 0.0 0.00 0.00 0.00 56 992.6
20260506224917 20 0 0.0 0.0 0.00 0.00 0.00 56 992.8
20260506224417 20 0 0.0 0.0 0.00 0.00 0.00 56 992.8
20260506223917 19 0 0.0 0.0 0.00 0.00 0.00 57 992.9
20260506223417 19 0 0.0 0.0 0.00 0.00 0.00 57 993.0
20260506222917 19 0 0.0 0.0 0.00 0.00 0.00 57 993.0
20260506222417 19 0 0.0 0.0 0.00 0.00 0.00 57 992.8
20260506221917 19 0 0.0 0.0 0.00 0.00 0.00 57 992.9
20260506221417 19 0 0.0 0.0 0.00 0.00 0.00 56 992.9
20260506220917 19 0 0.0 0.0 0.00 0.00 0.00 56 992.9
20260506220417 19 0 0.0 0.0 0.00 0.00 0.00 56 992.7
20260506215917 19 0 0.0 0.0 0.00 0.00 0.00 56 992.6
20260506215417 20 0 0.0 0.0 0.00 0.00 0.00 56 992.6
20260506214917 19 0 0.0 0.0 0.00 0.00 0.00 56 992.5
20260506214417 19 0 0.0 0.0 0.00 0.00 0.00 56 992.5
20260506213917 19 0 0.0 0.0 0.00 0.00 0.00 56 992.4
20260506213417 19 0 0.0 0.0 0.00 0.00 0.00 56 992.3
20260506212917 19 0 0.0 0.0 0.00 0.00 0.00 56 992.4
20260506212417 20 0 0.0 0.0 0.00 0.00 0.00 55 992.3
20260506211917 20 0 0.0 0.0 0.00 0.00 0.00 55 992.5
20260506211417 20 0 0.0 0.0 0.00 0.00 0.00 55 992.5
20260506210917 20 0 0.0 0.0 0.00 0.00 0.00 55 992.3
20260506210417 20 0 0.0 0.0 0.00 0.00 0.00 54 992.4
20260506205917 20 0 0.0 0.0 0.00 0.00 0.00 54 992.4
20260506205417 20 0 0.0 0.0 0.00 0.00 0.00 54 992.5
20260506204917 20 0 0.0 0.0 0.00 0.00 0.00 54 992.5
20260506204417 20 0 0.0 0.0 0.00 0.00 0.00 54 992.7
20260506203917 20 0 0.0 0.0 0.00 0.00 0.00 54 992.7
20260506203417 20 0 0.0 0.0 0.00 0.00 0.00 54 992.6
20260506202917 20 0 0.0 0.0 0.00 0.00 0.00 54 992.6
20260506202417 20 0 0.0 0.0 0.00 0.00 0.00 53 992.6
20260506201917 21 0 0.0 0.0 0.00 0.00 0.00 53 992.5
20260506201417 21 0 0.0 0.0 0.00 0.00 0.00 53 992.7
20260506200917 21 0 0.0 0.0 0.00 0.00 0.00 53 992.6
20260506200417 21 0 0.0 0.0 0.00 0.00 0.00 53 992.7
20260506195917 21 0 0.0 0.0 0.00 0.00 0.00 53 992.7
20260506195417 21 0 0.0 0.0 0.00 0.00 0.00 53 992.7
20260506194917 21 0 0.0 0.0 0.00 0.00 0.00 53 992.6
20260506194417 21 0 0.0 0.0 0.00 0.00 0.00 52 992.6
20260506193917 21 0 0.0 0.0 0.00 0.00 0.00 52 992.6
20260506193417 21 0 0.0 0.0 0.00 0.00 0.00 51 992.6
20260506192917 21 0 0.0 0.0 0.00 0.00 0.00 51 992.6
20260506192417 21 0 0.0 0.0 0.00 0.00 0.00 51 992.5
20260506191917 21 0 0.0 0.0 0.00 0.00 0.00 50 992.5
20260506191417 21 0 0.0 0.0 0.00 0.00 0.00 50 992.3
20260506190917 21 0 0.0 0.0 0.00 0.00 0.00 50 992.5
20260506190417 21 0 0.0 0.0 0.00 0.00 0.00 49 992.4
20260506185917 22 0 0.0 0.0 0.00 0.00 0.00 49 992.3
20260506185417 22 0 0.0 0.0 0.00 0.00 0.00 49 992.3
20260506184917 22 0 0.0 0.0 0.00 0.00 0.00 48 992.2
20260506184417 22 0 0.0 0.0 0.00 0.00 0.00 48 992.3
20260506183917 22 0 0.0 0.0 0.00 0.00 0.00 47 992.1
20260506183417 22 0 0.0 0.0 0.00 0.00 0.00 47 992.3
20260506182917 22 0 0.0 0.0 0.00 0.00 0.00 47 992.1
20260506182417 22 0 0.0 0.0 0.00 0.00 0.00 47 992.1
20260506181917 22 0 0.0 0.0 0.00 0.00 0.00 46 992.0
20260506181417 22 0 0.0 0.0 0.00 0.00 0.00 46 992.1
20260506180917 22 0 0.0 0.0 0.00 0.00 0.00 46 992.1
20260506180417 23 0 0.0 0.0 0.00 0.00 0.00 46 992.1
20260506175917 23 0 0.0 0.0 0.00 0.00 0.00 45 992.0
20260506175417 23 0 0.0 0.0 0.00 0.00 0.00 45 991.9
20260506174917 23 0 0.0 0.0 0.00 0.00 0.00 45 992.0
20260506174417 23 0 0.0 0.0 0.00 0.00 0.00 44 991.9
20260506173917 23 0 0.0 0.0 0.00 0.00 0.00 44 992.0
20260506173417 23 0 0.0 0.0 0.00 0.00 0.00 44 991.9
20260506172917 23 0 0.0 0.0 0.00 0.00 0.00 43 991.9
20260506172417 23 0 0.0 0.0 0.00 0.00 0.00 43 992.0
20260506171917 24 0 0.0 0.0 0.00 0.00 0.00 42 991.9
20260506171417 24 0 0.0 0.0 0.00 0.00 0.00 42 991.8
20260506170917 25 0 0.0 0.0 0.00 0.00 0.00 41 992.0
20260506170417 25 0 0.0 0.0 0.00 0.00 0.00 41 991.8
20260506165917 25 0 0.0 0.0 0.00 0.00 0.00 41 991.8
20260506165417 26 0 0.0 0.0 0.00 0.00 0.00 40 991.9
20260506164917 26 0 0.0 0.0 0.00 0.00 0.00 40 991.8
20260506164417 26 0 0.0 0.0 0.00 0.00 0.00 40 991.7
20260506163917 26 0 0.0 0.0 0.00 0.00 0.00 40 991.6
20260506163417 26 0 0.0 0.0 0.00 0.00 0.00 40 991.7
20260506162917 26 0 0.0 0.0 0.00 0.00 0.00 40 991.6
20260506162417 26 0 0.0 0.0 0.00 0.00 0.00 40 991.6
20260506161917 26 0 0.0 0.0 0.00 0.00 0.00 40 991.7
20260506161417 26 0 0.0 0.0 0.00 0.00 0.00 41 991.5
20260506160917 26 0 0.0 0.0 0.00 0.00 0.00 41 991.4
20260506160417 25 0 0.0 0.0 0.00 0.00 0.00 42 991.5
20260506155917 25 0 0.0 0.0 0.00 0.00 0.00 42 991.3
20260506155417 25 0 0.0 0.0 0.00 0.00 0.00 42 991.3
20260506154917 25 0 0.0 0.0 0.00 0.00 0.00 42 991.3
20260506154417 25 0 0.0 0.0 0.00 0.00 0.00 42 991.4
20260506153917 25 0 0.0 0.0 0.00 0.00 0.00 42 991.5
20260506153417 25 0 0.0 0.0 0.00 0.00 0.00 42 991.5
20260506152917 25 0 0.0 0.0 0.00 0.00 0.00 41 991.4
20260506152417 25 0 0.0 0.0 0.00 0.00 0.00 41 991.4
20260506151917 25 0 0.0 0.0 0.00 0.00 0.00 41 991.6
20260506151417 25 0 0.0 0.0 0.00 0.00 0.00 41 991.5
20260506150917 25 0 0.0 0.0 0.00 0.00 0.00 40 991.4
20260506150417 25 0 0.0 0.0 0.00 0.00 0.00 40 991.4
20260506145917 25 0 0.0 0.0 0.00 0.00 0.00 41 991.6
20260506145417 25 0 0.0 0.0 0.00 0.00 0.00 41 991.5
20260506144917 25 0 0.0 0.0 0.00 0.00 0.00 41 991.5
20260506144417 25 0 0.0 0.0 0.00 0.00 0.00 41 991.6
20260506143917 25 0 0.0 0.0 0.00 0.00 0.00 41 991.6
20260506143417 25 0 0.0 0.0 0.00 0.00 0.00 41 991.7
20260506142917 25 0 0.0 0.0 0.00 0.00 0.00 41 991.7
20260506142417 25 0 0.0 0.0 0.00 0.00 0.00 41 991.7
20260506141917 25 0 0.0 0.0 0.00 0.00 0.00 41 991.8
20260506141417 25 0 0.0 0.0 0.00 0.00 0.00 41 991.7
20260506140917 25 0 0.0 0.0 0.00 0.00 0.00 41 991.5
20260506140417 25 0 0.0 0.0 0.00 0.00 0.00 40 991.7
20260506135917 25 0 0.0 0.0 0.00 0.00 0.00 40 991.5
20260506135417 25 0 0.0 0.0 0.00 0.00 0.00 40 991.5
20260506134917 25 0 0.0 0.0 0.00 0.00 0.00 40 991.6
20260506134417 25 0 0.0 0.0 0.00 0.00 0.00 40 991.6
20260506133918 25 0 0.0 0.0 0.00 0.00 0.00 41 991.6
20260506133417 25 0 0.0 0.0 0.00 0.00 0.00 41 991.7
20260506132918 25 0 0.0 0.0 0.00 0.00 0.00 41 991.6
20260506132418 25 0 0.0 0.0 0.00 0.00 0.00 41 991.5
20260506131918 25 0 0.0 0.0 0.00 0.00 0.00 41 991.5
20260506131418 25 0 0.0 0.0 0.00 0.00 0.00 41 991.4
20260506130918 25 0 0.0 0.0 0.00 0.00 0.00 41 991.4
20260506130418 25 0 0.0 0.0 0.00 0.00 0.00 42 991.3
20260506125918 24 0 0.0 0.0 0.00 0.00 0.00 42 991.3
20260506125418 24 0 0.0 0.0 0.00 0.00 0.00 42 991.4
20260506124918 24 0 0.0 0.0 0.00 0.00 0.00 42 991.8
20260506124418 24 0 0.0 0.0 0.00 0.00 0.00 42 991.7
20260506123918 24 0 0.0 0.0 0.00 0.00 0.00 41 991.6
20260506123418 25 0 0.0 0.0 0.00 0.00 0.00 41 991.6
20260506122918 25 0 0.0 0.0 0.00 0.00 0.00 41 991.7
20260506122418 25 0 0.0 0.0 0.00 0.00 0.00 40 991.5
20260506121918 25 0 0.0 0.0 0.00 0.00 0.00 40 991.7
20260506121418 25 0 0.0 0.0 0.00 0.00 0.00 40 991.6
20260506120918 25 0 0.0 0.0 0.00 0.00 0.00 39 991.5
20260506120418 25 0 0.0 0.0 0.00 0.00 0.00 39 991.7
20260506115918 25 0 0.0 0.0 0.00 0.00 0.00 39 991.6
20260506115418 25 0 0.0 0.0 0.00 0.00 0.00 40 991.5
20260506114918 25 0 0.0 0.0 0.00 0.00 0.00 39 991.5
20260506114418 25 0 0.0 0.0 0.00 0.00 0.00 40 991.3
20260506113918 25 0 0.0 0.0 0.00 0.00 0.00 39 991.4
20260506113418 25 0 0.0 0.0 0.00 0.00 0.00 39 991.4
20260506112918 25 0 0.0 0.0 0.00 0.00 0.00 40 991.4
20260506112418 25 0 0.0 0.0 0.00 0.00 0.00 40 991.5
20260506111918 25 0 0.0 0.0 0.00 0.00 0.00 40 991.3
20260506111418 25 0 0.0 0.0 0.00 0.00 0.00 40 991.4
20260506110918 25 0 0.0 0.0 0.00 0.00 0.00 40 991.4
20260506110418 25 0 0.0 0.0 0.00 0.00 0.00 40 991.6
20260506105918 25 0 0.0 0.0 0.00 0.00 0.00 40 991.5
20260506105418 25 0 0.0 0.0 0.00 0.00 0.00 39 991.3
20260506104918 25 0 0.0 0.0 0.00 0.00 0.00 39 991.5
20260506104418 25 0 0.0 0.0 0.00 0.00 0.00 39 991.6
20260506103918 25 0 0.0 0.0 0.00 0.00 0.00 38 991.8
20260506103418 25 0 0.0 0.0 0.00 0.00 0.00 38 991.7
20260506102918 25 0 0.0 0.0 0.00 0.00 0.00 37 991.6
20260506102418 25 0 0.0 0.0 0.00 0.00 0.00 37 991.5
20260506101918 25 0 0.0 0.0 0.00 0.00 0.00 37 991.5
20260506101418 25 0 0.0 0.0 0.00 0.00 0.00 37 991.6
20260506100918 25 0 0.0 0.0 0.00 0.00 0.00 37 991.5
20260506100418 25 0 0.0 0.0 0.00 0.00 0.00 37 991.5
20260506095918 25 0 0.0 0.0 0.00 0.00 0.00 37 991.7
20260506095418 25 0 0.0 0.0 0.00 0.00 0.00 37 991.6
20260506094918 25 0 0.0 0.0 0.00 0.00 0.00 37 991.5
20260506094418 25 0 0.0 0.0 0.00 0.00 0.00 37 991.5
20260506093918 25 0 0.0 0.0 0.00 0.00 0.00 36 991.6
20260506093418 25 0 0.0 0.0 0.00 0.00 0.00 36 991.6
20260506092918 25 0 0.0 0.0 0.00 0.00 0.00 36 991.4
20260506092418 25 0 0.0 0.0 0.00 0.00 0.00 35 991.4
20260506091918 25 0 0.0 0.0 0.00 0.00 0.00 35 991.4
20260506091418 25 0 0.0 0.0 0.00 0.00 0.00 35 991.4
20260506090918 26 0 0.0 0.0 0.00 0.00 0.00 35 991.5
20260506090418 26 0 0.0 0.0 0.00 0.00 0.00 35 991.6
20260506085918 26 0 0.0 0.0 0.00 0.00 0.00 35 991.6
20260506085418 26 0 0.0 0.0 0.00 0.00 0.00 35 991.5
20260506084918 26 0 0.0 0.0 0.00 0.00 0.00 35 991.3
20260506084418 26 0 0.0 0.0 0.00 0.00 0.00 36 991.3
20260506083918 26 0 0.0 0.0 0.00 0.00 0.00 35 991.3
20260506083418 26 0 0.0 0.0 0.00 0.00 0.00 36 991.4
20260506082918 26 0 0.0 0.0 0.00 0.00 0.00 36 991.2
20260506082418 26 0 0.0 0.0 0.00 0.00 0.00 37 991.0
20260506081918 26 0 0.0 0.0 0.00 0.00 0.00 37 991.2
20260506081418 26 0 0.0 0.0 0.00 0.00 0.00 37 991.3
20260506080918 26 0 0.0 0.0 0.00 0.00 0.00 37 991.4
20260506080418 26 0 0.0 0.0 0.00 0.00 0.00 39 991.4